Miscellaneous Local Product
Issued by NWS Hastings, NE

Home | Current Version | Previous Version | Graphics & Text | Print | Product List | Glossary On
Versions: 1 2 3 4 5 6 7 8 9 10 11 12 13 14 15 16 17 18 19 20 21 22 23 24 25 26 27 28 29 30 31 32 33 34 35 36 37 38 39 40 41 42 43 44 45 46 47 48 49 50
000
AXUS43 KGID 071602
MISGRI

GID CWA HOURLY WEATHER ROUNDUP
NATIONAL WEATHER SERVICE HASTINGS NE
1000 AM CST WED DEC 07 2016

NOTE: "FAIR" INDICATES FEW OR NO CLOUDS BELOW 12,000 FEET WITH NO
SIGNIFICANT WEATHER AND/OR OBSTRUCTIONS TO VISIBILITY.

...SOUTH CENTRAL NEBRASKA...

CITY           SKY/WX    TMP DP  RH WIND       PRES   REMARKS
GRAND ISLAND   CLOUDY    17   4  56 NW14      30.34R WCI   3
HASTINGS       CLOUDY    17   4  56 NW10      30.34R WCI   5
KEARNEY        CLOUDY    16   0  48 NW10      30.33R WCI   3
ORD            CLOUDY    13  -1  54 NW18      30.31R WCI  -4
YORK           CLOUDY    18   7  62 NW14      30.33R WCI   4
AURORA         CLOUDY    17   4  57 NW15      30.32R WCI   3
LEXINGTON      CLOUDY    16   7  68 N12       30.32R WCI   3
HOLDREGE       LGT SNOW  16   8  70 N9        30.31R WCI   4
HEBRON         CLOUDY    21   8  56 NW13      30.35R WCI   8

...NEBRASKA PANHANDLE...

CITY           SKY/WX    TMP DP  RH WIND       PRES   REMARKS
CHADRON        CLOUDY     7  -3  64 W16G28    30.33R WCI -11
ALLIANCE       LGT SNOW   8   1  73 NW10      30.24R WCI  -6
SCOTTSBLUFF    LGT SNOW   7   0  73 NW12      30.28R WCI  -8
SIDNEY         LGT SNOW   9   3  77 N18       30.23R WCI -10

...WESTERN AND NORTH CENTRAL NEBRASKA...

CITY           SKY/WX    TMP DP  RH WIND       PRES   REMARKS
VALENTINE      CLOUDY     7  -5  57 NW21G26   30.31R WCI -13
AINSWORTH      CLOUDY     8  -2  65 NW17G24   30.30R WCI -10
ONEILL         CLOUDY    11   1  62 NW17G26   30.30R WCI  -6
BROKEN BOW     CLOUDY    14   1  56 NW18      30.30R WCI  -3
IMPERIAL       LGT SNOW  12   7  80 N13       30.29R WCI  -3
NORTH PLATTE   LGT SNOW  13   5  70 N13       30.31R WCI  -2
MCCOOK         LGT SNOW  15  10  80 N6        30.32R VSB 3/4 WCI   6

...EASTERN NEBRASKA...

CITY           SKY/WX    TMP DP  RH WIND       PRES   REMARKS
NORFOLK        CLOUDY    14   2  58 NW20      30.29R WCI  -3
SO SIOUX CITY  CLOUDY    17   6  62 NW18G26   30.29R WCI   1
TEKAMAH        CLOUDY    17   7  64 NW18      30.32R WCI   1
COLUMBUS       MOSUNNY   18   3  53 NW17      30.32R WCI   2
ALBION         CLOUDY    15   3  59 NW13G25   30.30R WCI   1
OMAHA EPPLEY   CLOUDY    19   7  59 NW14      30.33R WCI   6
OFFUTT AFB     CLOUDY    19   8  61 W13       30.32R WCI   6
MILLARD        CLOUDY    19   8  61 W13       30.33R WCI   6
LINCOLN        CLOUDY    20   7  57 NW12      30.35R WCI   8
NEBRASKA CITY  CLOUDY    21   7  54 NW12      30.32R WCI   9
BEATRICE       CLOUDY    22  10  60 NW15      30.33R WCI   8
FALLS CITY     CLOUDY    22  11  62 NW10      30.32R WCI  11

...NORTHERN KANSAS...

CITY           SKY/WX    TMP DP  RH WIND       PRES   REMARKS
GOODLAND       LGT SNOW  13   9  84 NE14      30.23R FOG     WCI  -2
HILL CITY      LGT SNOW  18  14  84 N13       30.34R VSB 3/4 WCI   5
NORTON         LGT SNOW  16   9  73 N12       30.31  WCI   3
PHILLIPSBURG   LGT SNOW  19  14  79 N10       30.35R WCI   8
SMITH CENTER   LGT SNOW  16  12  86 N9        30.35R WCI   4
BELOIT         CLOUDY    19  16  86 N17       30.36R WCI   4
HAYS           FLURRIES  21  14  74 N16       30.32R WCI   7
RUSSELL        CLOUDY    22  13  68 N15       30.31R WCI   9
CONCORDIA      LGT SNOW  19  17  92 N10       30.35R FOG     WCI   7
SALINA         LGT SNOW  27  16  63 N12       30.34R WCI  17
TOPEKA         CLOUDY    28  14  55 N9        30.32R WCI  19



USA.gov is the U.S. government's official web portal to all federal, state and local government web resources and services.